Time[GMT],current_speed[cm/s](2m),current_direction[angular_degrees](2m),temperature[C](2m),current_u[cm/s](2m),current_v[cm/s](2m)
2016-10-07 14:00,15.54,197.1,14.27,-4.56,-14.86
2016-10-07 15:00,9.39,227.7,14.31,-6.94,-6.32
2016-10-07 16:00,13.20,298.0,14.27,-11.66,6.19
2016-10-07 17:00,11.44,298.3,14.43,-10.07,5.43
2016-10-07 18:00,6.75,298.7,14.53,-5.92,3.24
2016-10-07 19:00,7.33,175.6,14.75,0.56,-7.31
2016-10-07 20:00,7.33,197.8,14.49,-2.24,-6.98
2016-10-07 21:00,25.81,178.4,14.49,0.70,-25.80
2016-10-07 22:00,36.37,179.1,14.53,0.55,-36.37
2016-10-07 23:00,35.20,182.7,14.24,-1.63,-35.16
2016-10-08 00:00,35.78,154.5,14.65,15.39,-32.30
2016-10-08 01:00,31.97,167.2,14.62,7.09,-31.17
2016-10-08 02:00,20.82,195.3,14.46,-5.50,-20.09
2016-10-08 03:00,13.49,216.1,14.40,-7.94,-10.91
2016-10-08 04:00,9.97,246.6,14.46,-9.16,-3.95
2016-10-08 05:00,12.91,290.6,14.37,-12.08,4.54
2016-10-08 06:00,9.97,305.0,14.49,-8.17,5.72
2016-10-08 07:00,7.33,257.5,14.43,-7.16,-1.58
2016-10-08 08:00,9.97,187.6,14.43,-1.31,-9.89
2016-10-08 09:00,17.60,165.1,14.49,4.53,-17.00
2016-10-08 10:00,26.98,175.3,14.40,2.22,-26.89
2016-10-08 11:00,35.78,182.3,14.31,-1.44,-35.75
2016-10-08 12:00,31.09,177.7,14.40,1.23,-31.07
2016-10-08 13:00,29.04,171.1,14.56,4.52,-28.68
2016-10-08 14:00,13.20,178.8,14.62,0.28,-13.20
2016-10-08 15:00,10.27,195.3,14.62,-2.71,-9.90
2016-10-08 16:00,5.28,245.6,14.43,-4.81,-2.18
2016-10-08 17:00,9.68,11.4,14.78,1.92,9.49
2016-10-08 18:00,16.72,46.2,14.84,12.07,11.56
2016-10-08 19:00,9.39,53.6,14.71,7.56,5.57
2016-10-08 20:00,6.16,132.7,14.68,4.52,-4.18
2016-10-08 21:00,21.70,170.3,14.62,3.64,-21.40
2016-10-08 22:00,26.69,162.6,14.65,7.98,-25.47
2016-10-08 23:00,31.38,177.4,14.59,1.43,-31.35
2016-10-09 00:00,28.74,179.5,14.49,0.26,-28.74
2016-10-09 01:00,28.45,165.4,14.49,7.16,-27.53
2016-10-09 02:00,19.94,183.0,14.46,-1.05,-19.92
2016-10-09 03:00,12.32,203.0,14.53,-4.82,-11.34
2016-10-09 04:00,2.93,243.1,14.53,-2.62,-1.33
2016-10-09 05:00,9.68,38.8,14.49,6.07,7.54
2016-10-09 06:00,18.77,65.2,14.40,17.04,7.87
2016-10-09 07:00,8.21,60.3,14.31,7.13,4.07
2016-10-09 08:00,8.21,118.0,14.24,7.25,-3.85
2016-10-09 09:00,7.63,130.6,14.24,5.79,-4.96
2016-10-09 10:00,22.88,201.3,14.37,-8.31,-21.32
2016-10-09 11:00,38.42,192.5,14.43,-8.32,-37.51
2016-10-09 12:00,41.65,194.6,14.43,-10.50,-40.30
2016-10-09 13:00,48.69,196.0,14.40,-13.43,-46.80
2016-10-09 14:00,36.66,203.0,14.34,-14.35,-33.74
2016-10-09 15:00,33.44,206.2,14.34,-14.77,-30.00
2016-10-09 16:00,22.29,215.7,14.21,-13.01,-18.10
2016-10-09 17:00,14.66,253.7,14.02,-14.07,-4.12
2016-10-09 18:00,17.60,278.3,13.96,-17.41,2.54
2016-10-09 19:00,21.41,294.1,13.93,-19.54,8.75
2016-10-09 20:00,18.77,316.3,13.96,-12.98,13.56
2016-10-09 21:00,9.09,295.2,13.93,-8.23,3.87
2016-10-09 22:00,5.57,195.0,13.90,-1.44,-5.38
2016-10-09 23:00,22.58,182.0,13.90,-0.77,-22.57
2016-10-10 00:00,28.16,188.3,13.86,-4.05,-27.86
2016-10-10 01:00,32.85,179.8,13.86,0.09,-32.85
2016-10-10 02:00,39.30,188.3,13.86,-5.66,-38.89
2016-10-10 03:00,38.13,189.3,13.90,-6.18,-37.62
2016-10-10 04:00,44.87,195.7,13.90,-12.12,-43.21
2016-10-10 05:00,29.92,214.3,13.80,-16.86,-24.71
2016-10-10 06:00,19.65,225.5,13.64,-14.03,-13.76
2016-10-10 07:00,11.73,337.0,13.58,-4.58,10.80
2016-10-10 08:00,18.18,338.8,13.58,-6.59,16.95
2016-10-10 09:00,26.10,157.3,13.64,10.06,-24.09
2016-10-10 10:00,49.27,173.9,13.74,5.27,-48.99
2016-10-10 11:00,47.22,180.5,13.77,-0.45,-47.22
2016-10-10 12:00,56.61,181.6,13.83,-1.58,-56.58
2016-10-10 13:00,54.85,176.7,13.77,3.18,-54.75
2016-10-10 14:00,60.42,186.5,13.77,-6.86,-60.03
2016-10-10 15:00,41.94,186.2,13.83,-4.51,-41.70
2016-10-10 16:00,39.89,187.2,13.86,-5.02,-39.57
2016-10-10 17:00,25.81,204.8,13.86,-10.83,-23.43
2016-10-10 18:00,13.79,195.0,13.80,-3.56,-13.32
2016-10-10 19:00,3.23,181.6,13.77,-0.09,-3.23
2016-10-10 20:00,15.84,155.9,13.77,6.46,-14.46
2016-10-10 21:00,20.82,162.3,13.71,6.34,-19.83
2016-10-10 22:00,29.92,167.9,13.71,6.28,-29.25
2016-10-10 23:00,40.18,184.4,13.71,-3.09,-40.06
2016-10-11 00:00,48.69,178.1,13.74,1.63,-48.66
2016-10-11 01:00,54.55,173.5,13.77,6.16,-54.20
2016-10-11 02:00,49.57,173.5,13.74,5.60,-49.25
2016-10-11 03:00,40.18,176.0,13.71,2.82,-40.08
2016-10-11 04:00,27.57,176.7,13.71,1.60,-27.52
2016-10-11 05:00,25.81,167.5,13.64,5.57,-25.20
2016-10-11 06:00,5.57,202.7,13.58,-2.15,-5.14
2016-10-11 07:00,4.40,9.7,13.55,0.74,4.34
2016-10-11 08:00,13.49,68.4,13.58,12.54,4.97
2016-10-11 09:00,13.79,66.3,13.58,12.62,5.55
2016-10-11 10:00,20.82,172.5,13.52,2.73,-20.64
2016-10-11 11:00,35.78,160.9,13.52,11.74,-33.80
2016-10-11 12:00,45.17,168.6,13.52,8.94,-44.28
2016-10-11 13:00,52.50,179.1,13.52,0.79,-52.49
2016-10-11 14:00,48.10,192.1,13.52,-10.12,-47.02
2016-10-11 15:00,51.03,197.1,13.64,-14.98,-48.79
2016-10-11 16:00,37.84,203.0,13.68,-14.81,-34.82
2016-10-11 17:00,29.92,205.9,13.71,-13.05,-26.92
2016-10-11 18:00,18.77,206.9,13.74,-8.50,-16.74
2016-10-11 19:00,7.04,215.0,13.90,-4.04,-5.77
2016-10-11 20:00,5.28,349.3,13.90,-0.98,5.19
2016-10-11 21:00,14.37,91.9,13.77,14.36,-0.49
2016-10-11 22:00,23.76,107.8,13.86,22.62,-7.25
2016-10-11 23:00,17.30,116.6,13.80,15.48,-7.74
2016-10-12 00:00,22.29,141.9,13.80,13.76,-17.53
2016-10-12 01:00,40.18,164.4,13.80,10.83,-38.70
2016-10-12 02:00,42.82,172.5,13.68,5.62,-42.45
2016-10-12 03:00,45.75,173.9,13.74,4.89,-45.49
2016-10-12 04:00,33.14,181.6,13.71,-0.92,-33.13
2016-10-12 05:00,26.69,174.9,13.71,2.36,-26.59
2016-10-12 06:00,16.72,193.9,13.68,-4.02,-16.23
2016-10-12 07:00,11.44,191.8,13.64,-2.34,-11.20
2016-10-12 08:00,8.51,249.8,13.58,-7.98,-2.94
2016-10-12 09:00,7.04,322.6,13.52,-4.28,5.59
2016-10-12 10:00,7.33,345.1,13.52,-1.89,7.08
2016-10-12 11:00,5.28,85.3,13.55,5.26,0.44
2016-10-12 12:00,11.44,173.9,13.52,1.22,-11.37
2016-10-12 13:00,20.53,164.0,13.52,5.65,-19.74
2016-10-12 14:00,26.40,166.5,13.58,6.17,-25.67
2016-10-12 15:00,33.14,174.2,13.68,3.34,-32.97
2016-10-12 16:00,33.14,166.5,13.71,7.75,-32.22
2016-10-12 17:00,16.72,137.3,13.80,11.34,-12.29
2016-10-12 18:00,16.72,118.0,13.86,14.77,-7.84
2016-10-12 19:00,8.80,166.5,13.80,2.06,-8.56
2016-10-12 20:00,24.93,33.9,13.96,13.91,20.69
2016-10-12 21:00,17.30,26.9,13.86,7.83,15.43
2016-10-12 22:00,23.17,16.3,13.80,6.52,22.23
2016-10-12 23:00,16.13,36.7,13.77,9.65,12.93
2016-10-13 00:00,3.52,343.7,13.74,-0.99,3.38
2016-10-13 01:00,15.54,171.4,13.74,2.32,-15.37
2016-10-13 02:00,23.17,179.8,13.77,0.06,-23.17
2016-10-13 03:00,24.64,172.1,13.77,3.38,-24.40
2016-10-13 04:00,26.10,171.8,13.77,3.74,-25.83
2016-10-13 05:00,16.72,175.6,13.74,1.28,-16.67
2016-10-13 06:00,10.27,151.7,13.71,4.86,-9.04
2016-10-13 07:00,1.17,195.3,13.71,-0.31,-1.13
2016-10-13 08:00,6.45,288.1,13.71,-6.13,2.01
2016-10-13 09:00,18.18,8.3,13.71,2.61,18.00
2016-10-13 10:00,26.40,10.7,13.71,4.91,25.94
2016-10-13 11:00,18.77,26.9,13.71,8.49,16.74
2016-10-13 12:00,14.66,1.6,13.68,0.40,14.66
2016-10-13 13:00,2.35,169.3,13.68,0.44,-2.31
2016-10-13 14:00,12.03,201.6,13.68,-4.43,-11.18
2016-10-13 15:00,21.70,175.6,13.71,1.66,-21.64
2016-10-13 16:00,26.98,176.3,13.71,1.73,-26.93
2016-10-13 17:00,15.54,155.9,13.80,6.34,-14.19
2016-10-13 18:00,9.39,118.0,13.83,8.29,-4.40
2016-10-13 19:00,13.20,83.5,13.77,13.11,1.49
2016-10-13 20:00,8.21,345.1,13.74,-2.12,7.93
2016-10-13 21:00,23.46,16.7,13.77,6.74,22.47
2016-10-13 22:00,38.13,2.3,13.71,1.52,38.10
2016-10-13 23:00,34.02,0.2,13.77,0.10,34.02
2016-10-14 00:00,15.84,7.6,13.77,2.08,15.70
2016-10-14 01:00,4.11,17.8,13.77,1.25,3.91
2016-10-14 02:00,11.15,156.6,13.74,4.42,-10.23
2016-10-14 03:00,24.05,191.1,13.64,-4.63,-23.60
2016-10-14 04:00,35.20,176.0,13.68,2.47,-35.11
2016-10-14 05:00,36.66,178.1,13.64,1.23,-36.64
2016-10-14 06:00,38.42,170.0,13.61,6.67,-37.84
2016-10-14 07:00,21.41,174.9,13.58,1.90,-21.33
2016-10-14 08:00,17.89,158.0,13.55,6.69,-16.59
2016-10-14 09:00,18.77,190.7,13.58,-3.50,-18.44
2016-10-14 10:00,6.75,250.2,13.52,-6.35,-2.29
2016-10-14 11:00,22.88,321.5,13.46,-14.23,17.91
2016-10-14 12:00,33.14,297.3,13.46,-29.46,15.19
2016-10-14 13:00,24.34,279.7,13.42,-24.00,4.10
2016-10-14 14:00,7.04,214.3,13.39,-3.97,-5.82
2016-10-14 15:00,19.36,212.2,13.42,-10.31,-16.38
2016-10-14 16:00,36.96,196.7,13.46,-10.63,-35.39
2016-10-14 17:00,45.17,188.3,13.46,-6.50,-44.70
2016-10-14 18:00,35.49,184.8,13.49,-2.95,-35.37
2016-10-14 19:00,23.76,186.9,13.49,-2.84,-23.59
2016-10-14 20:00,11.73,183.0,13.49,-0.62,-11.72
2016-10-14 21:00,6.75,259.3,13.49,-6.63,-1.25
2016-10-14 22:00,17.30,324.0,13.42,-10.17,14.00
2016-10-14 23:00,29.04,358.8,13.39,-0.62,29.03
2016-10-15 00:00,21.41,347.9,13.33,-4.50,20.93
2016-10-15 01:00,14.08,336.0,13.33,-5.74,12.86
2016-10-15 02:00,1.47,239.6,13.27,-1.27,-0.74
2016-10-15 03:00,17.01,174.6,13.27,1.61,-16.93
2016-10-15 04:00,47.51,186.2,13.33,-5.11,-47.24
2016-10-15 05:00,50.45,184.4,13.33,-3.88,-50.30
2016-10-15 06:00,42.24,182.7,13.36,-1.96,-42.19
2016-10-15 07:00,33.73,182.7,13.36,-1.56,-33.69
2016-10-15 08:00,15.84,163.7,13.33,4.45,-15.20
2016-10-15 09:00,2.64,228.7,13.33,-1.98,-1.74
2016-10-15 10:00,14.08,331.7,13.33,-6.67,12.40
2016-10-15 11:00,33.44,333.5,13.30,-14.92,29.92
2016-10-15 12:00,31.68,338.4,13.27,-11.65,29.45
2016-10-15 13:00,26.10,333.5,13.24,-11.65,23.36
2016-10-15 14:00,15.25,307.8,13.20,-12.05,9.35
2016-10-15 15:00,9.97,217.1,13.24,-6.02,-7.95
2016-10-15 16:00,34.61,176.7,13.33,2.01,-34.55
2016-10-15 17:00,44.29,187.2,13.30,-5.57,-43.94
2016-10-15 18:00,52.50,182.7,13.39,-2.43,-52.44
2016-10-15 19:00,43.41,185.1,13.42,-3.87,-43.24
2016-10-15 20:00,25.52,194.6,13.42,-6.44,-24.69
2016-10-15 21:00,7.92,231.9,13.42,-6.23,-4.89
2016-10-15 22:00,15.84,320.1,13.49,-10.15,12.16
2016-10-15 23:00,31.68,345.8,13.33,-7.79,30.70
2016-10-16 00:00,39.01,334.2,13.33,-16.98,35.12
2016-10-16 01:00,37.25,330.3,13.27,-18.44,32.36
2016-10-16 02:00,13.79,357.7,13.17,-0.55,13.77
2016-10-16 03:00,14.08,286.4,13.11,-13.51,3.97
2016-10-16 04:00,21.41,185.5,13.24,-2.04,-21.31
2016-10-16 05:00,43.99,185.1,13.27,-3.92,-43.82
2016-10-16 06:00,49.57,172.1,13.27,6.81,-49.10
2016-10-16 07:00,46.63,178.1,13.27,1.56,-46.61
2016-10-16 08:00,24.93,174.2,13.30,2.51,-24.80
2016-10-16 09:00,6.16,142.9,13.33,3.71,-4.91
2016-10-16 10:00,9.39,341.9,13.33,-2.91,8.92
2016-10-16 11:00,23.17,7.2,13.27,2.91,22.99
2016-10-16 12:00,39.01,5.8,13.27,3.94,38.81
2016-10-16 13:00,24.05,9.7,13.24,4.04,23.71
2016-10-16 14:00,32.56,348.2,13.14,-6.65,31.87
2016-10-16 15:00,9.68,98.6,13.24,9.57,-1.45
2016-10-16 16:00,23.17,168.9,13.30,4.44,-22.74
2016-10-16 17:00,40.77,173.5,13.33,4.61,-40.51
2016-10-16 18:00,40.48,163.0,13.33,11.86,-38.70
2016-10-16 19:00,45.75,172.1,13.36,6.28,-45.32
2016-10-16 20:00,32.26,161.2,13.39,10.39,-30.54
2016-10-16 21:00,17.30,134.1,13.36,12.42,-12.05
2016-10-16 22:00,21.70,88.8,13.36,21.70,0.46
2016-10-16 23:00,19.65,36.0,13.36,11.56,15.89
2016-10-17 00:00,31.09,12.1,13.33,6.53,30.40
2016-10-17 01:00,29.92,344.4,13.30,-8.07,28.81
2016-10-17 02:00,39.30,325.8,13.30,-22.12,32.49
2016-10-17 03:00,16.72,320.5,13.27,-10.64,12.90
2016-10-17 04:00,4.11,96.2,13.27,4.08,-0.44
2016-10-17 05:00,26.69,182.7,13.30,-1.24,-26.66
2016-10-17 06:00,34.02,181.6,13.30,-0.95,-34.01
2016-10-17 07:00,46.05,177.0,13.33,2.39,-45.99
2016-10-17 08:00,29.92,176.3,13.39,1.92,-29.86
2016-10-17 09:00,24.34,183.4,13.42,-1.43,-24.30
2016-10-17 10:00,12.61,197.8,13.46,-3.85,-12.01
2016-10-17 11:00,11.15,298.0,13.42,-9.84,5.23
2016-10-17 12:00,17.89,351.7,13.42,-2.57,17.71
2016-10-17 13:00,33.14,330.3,13.42,-16.41,28.80
2016-10-17 14:00,45.46,317.7,13.39,-30.61,33.61
2016-10-17 15:00,26.40,337.0,13.27,-10.31,24.30
2016-10-17 16:00,17.60,298.7,13.27,-15.44,8.45
2016-10-17 17:00,10.85,239.6,13.39,-9.36,-5.49
2016-10-17 18:00,22.29,179.8,13.55,0.06,-22.29
2016-10-17 19:00,31.38,189.0,13.33,-4.90,-31.00
2016-10-17 20:00,46.63,179.5,13.64,0.42,-46.63
2016-10-17 21:00,29.62,182.0,13.55,-1.01,-29.61
2016-10-17 22:00,14.96,155.6,13.55,6.18,-13.62
2016-10-17 23:00,3.81,261.1,13.64,-3.77,-0.59
2016-10-18 00:00,5.28,356.0,13.58,-0.37,5.27
2016-10-18 01:00,30.80,6.2,13.55,3.30,30.62
2016-10-18 02:00,27.86,336.0,13.46,-11.35,25.44
2016-10-18 03:00,41.06,319.1,13.33,-26.90,31.03
2016-10-18 04:00,19.94,299.7,13.27,-17.32,9.89
2016-10-18 05:00,10.56,296.6,13.17,-9.44,4.72
2016-10-18 06:00,22.58,182.7,13.27,-1.05,-22.56
2016-10-18 07:00,43.12,190.0,13.33,-7.51,-42.46
2016-10-18 08:00,47.22,186.2,13.36,-5.08,-46.95
2016-10-18 09:00,37.54,186.5,13.36,-4.26,-37.30
2016-10-18 10:00,19.36,187.2,13.33,-2.43,-19.20
2016-10-18 11:00,5.28,279.0,13.30,-5.21,0.83
2016-10-18 12:00,13.20,327.9,13.30,-7.02,11.18
2016-10-18 13:00,29.92,342.6,13.27,-8.93,28.55
2016-10-18 14:00,39.60,352.8,13.27,-4.97,39.28
2016-10-18 15:00,40.18,342.3,13.24,-12.23,38.28
2016-10-18 16:00,19.94,335.2,13.17,-8.35,18.11
2016-10-18 17:00,11.44,300.8,13.14,-9.83,5.86
2016-10-18 18:00,23.46,174.6,13.20,2.22,-23.36
2016-10-18 19:00,42.53,187.2,13.24,-5.35,-42.19
2016-10-18 20:00,56.61,174.9,13.30,5.01,-56.38
2016-10-18 21:00,47.22,187.9,13.33,-6.51,-46.77
2016-10-18 22:00,30.80,191.4,13.36,-6.11,-30.18
2016-10-18 23:00,14.66,201.3,13.36,-5.32,-13.66
2016-10-19 00:00,10.27,331.4,13.39,-4.92,9.01
2016-10-19 01:00,21.12,2.6,13.33,0.97,21.10
2016-10-19 02:00,39.01,10.7,13.33,7.26,38.33
2016-10-19 03:00,30.80,10.7,13.30,5.73,30.26
2016-10-19 04:00,24.93,18.5,13.27,7.89,23.65
2016-10-19 05:00,4.99,80.3,13.27,4.92,0.84
2016-10-19 06:00,15.54,176.0,13.27,1.09,-15.51
2016-10-19 07:00,28.45,177.0,13.27,1.47,-28.41
2016-10-19 08:00,42.82,168.9,13.33,8.21,-42.03
2016-10-19 09:00,51.33,181.2,13.42,-1.12,-51.32
2016-10-19 10:00,38.13,183.7,13.42,-2.47,-38.05
2016-10-19 11:00,26.10,187.2,13.46,-3.28,-25.90
2016-10-19 12:00,12.91,219.9,13.42,-8.28,-9.90
2016-10-19 13:00,12.61,279.3,13.46,-12.44,2.05
2016-10-19 14:00,19.06,339.8,13.46,-6.58,17.89
2016-10-19 15:00,33.14,336.0,13.46,-13.51,30.27
2016-10-19 16:00,24.34,335.2,13.52,-10.19,22.11
2016-10-19 17:00,1.76,130.6,13.49,1.34,-1.15
2016-10-19 18:00,29.62,190.7,13.55,-5.52,-29.10
2016-10-19 19:00,34.02,191.4,13.52,-6.75,-33.35
2016-10-19 20:00,41.94,183.4,13.55,-2.46,-41.87
2016-10-19 21:00,58.37,188.3,13.64,-8.41,-57.76
2016-10-19 22:00,52.79,188.6,13.74,-7.92,-52.20
2016-10-19 23:00,40.18,182.3,13.68,-1.61,-40.15
2016-10-20 00:00,26.10,180.2,13.61,-0.09,-26.10
2016-10-20 01:00,17.01,230.8,13.61,-13.19,-10.75
2016-10-20 02:00,4.99,340.9,13.55,-1.63,4.71
2016-10-20 03:00,19.94,348.9,13.52,-3.83,19.57
2016-10-20 04:00,25.52,339.1,13.36,-9.10,23.84
2016-10-20 05:00,7.33,128.5,13.36,5.74,-4.57
2016-10-20 06:00,10.56,129.2,13.39,8.18,-6.68
2016-10-20 07:00,24.93,192.9,13.33,-5.54,-24.31
2016-10-20 08:00,31.97,188.3,13.30,-4.60,-31.64
2016-10-20 09:00,49.57,182.7,13.33,-2.30,-49.51
2016-10-20 10:00,51.62,187.9,13.30,-7.12,-51.13
2016-10-20 11:00,39.30,192.9,13.36,-8.74,-38.32
2016-10-20 12:00,23.46,220.6,13.33,-15.28,-17.81
2016-10-20 13:00,12.03,257.9,13.30,-11.76,-2.52
2016-10-20 14:00,12.32,307.5,13.30,-9.78,7.49
2016-10-20 15:00,30.21,335.6,13.30,-12.48,27.51
2016-10-20 16:00,37.84,355.3,13.33,-3.13,37.71
2016-10-20 17:00,6.45,26.9,13.49,2.92,5.75
2016-10-20 18:00,7.92,159.1,13.42,2.83,-7.40
2016-10-20 19:00,18.77,161.9,13.42,5.83,-17.84
2016-10-20 20:00,27.86,175.3,13.33,2.30,-27.77
2016-10-20 21:00,45.75,166.8,13.49,10.42,-44.55
2016-10-20 22:00,55.14,182.7,13.49,-2.55,-55.08
2016-10-20 23:00,46.34,184.1,13.46,-3.28,-46.23
2016-10-21 00:00,31.09,204.5,13.46,-12.87,-28.30
2016-10-21 01:00,27.28,225.2,13.55,-19.35,-19.22
2016-10-21 02:00,12.61,233.6,13.55,-10.16,-7.48
2016-10-21 03:00,13.20,304.0,13.46,-10.95,7.37
2016-10-21 04:00,35.49,331.7,13.30,-16.81,31.26
2016-10-21 05:00,31.68,6.2,13.27,3.39,31.49
2016-10-21 06:00,7.04,28.3,13.33,3.34,6.20
2016-10-21 07:00,5.87,161.6,13.33,1.86,-5.56
2016-10-21 08:00,20.24,188.3,13.33,-2.91,-20.03
2016-10-21 09:00,32.56,189.7,13.27,-5.48,-32.09
2016-10-21 10:00,53.97,187.9,13.36,-7.44,-53.45
2016-10-21 11:00,44.29,195.3,13.36,-11.70,-42.72
2016-10-21 12:00,31.38,189.0,13.42,-4.90,-31.00
2016-10-21 13:00,24.34,210.4,13.42,-12.33,-20.99
2016-10-21 14:00,9.68,245.6,13.46,-8.81,-4.00
2016-10-21 15:00,10.56,317.3,13.46,-7.16,7.76
2016-10-21 16:00,17.30,356.0,13.49,-1.22,17.26
2016-10-21 17:00,24.34,4.4,13.55,1.86,24.27
2016-10-21 18:00,15.25,11.4,13.52,3.02,14.95
2016-10-21 19:00,8.51,140.5,13.55,5.41,-6.56
2016-10-21 20:00,23.17,190.7,13.49,-4.32,-22.76
2016-10-21 21:00,29.92,191.1,13.42,-5.76,-29.36
2016-10-21 22:00,39.01,195.7,13.52,-10.53,-37.56
2016-10-21 23:00,46.93,179.8,13.58,0.13,-46.93
2016-10-22 00:00,36.66,197.1,13.55,-10.76,-35.05
2016-10-22 01:00,29.04,209.4,13.52,-14.24,-25.30
2016-10-22 02:00,14.66,235.7,13.58,-12.12,-8.25
2016-10-22 03:00,10.27,264.9,13.61,-10.23,-0.91
2016-10-22 04:00,12.91,294.8,13.52,-11.71,5.42
2016-10-22 05:00,19.94,331.4,13.39,-9.55,17.51
2016-10-22 06:00,26.98,331.0,13.33,-13.07,23.61
2016-10-22 07:00,13.20,39.6,13.42,8.40,10.18
2016-10-22 08:00,18.18,161.9,13.42,5.65,-17.29
2016-10-22 09:00,29.04,186.2,13.39,-3.12,-28.87
2016-10-22 10:00,55.14,180.2,13.58,-0.19,-55.14
2016-10-22 11:00,51.91,180.2,13.58,-0.17,-51.91
2016-10-22 12:00,44.87,183.0,13.58,-2.35,-44.81
2016-10-22 13:00,41.65,187.9,13.61,-5.74,-41.25
2016-10-22 14:00,33.73,192.1,13.61,-7.10,-32.97
2016-10-22 15:00,19.06,228.7,13.71,-14.33,-12.58
2016-10-22 16:00,15.54,268.1,13.71,-15.54,-0.52
2016-10-22 17:00,18.77,295.9,13.77,-16.89,8.19
2016-10-22 18:00,27.28,322.6,13.58,-16.57,21.67
2016-10-22 19:00,19.36,340.5,13.52,-6.45,18.25
2016-10-22 20:00,7.04,109.9,13.46,6.62,-2.39
2016-10-22 21:00,24.05,178.8,13.58,0.51,-24.05
2016-10-22 22:00,30.80,193.9,13.55,-7.40,-29.89
2016-10-22 23:00,37.25,186.5,13.49,-4.23,-37.01
2016-10-23 00:00,41.36,161.2,13.52,13.32,-39.15
2016-10-23 01:00,29.92,139.4,13.52,19.47,-22.72
2016-10-23 02:00,38.13,128.5,13.52,29.84,-23.74
2016-10-23 03:00,22.58,102.1,13.52,22.08,-4.75
2016-10-23 04:00,15.84,73.3,13.49,15.17,4.55
2016-10-23 05:00,23.17,38.5,13.46,14.42,18.13
2016-10-23 06:00,9.39,10.7,13.39,1.75,9.22
2016-10-23 07:00,7.63,329.6,13.39,-3.86,6.58
2016-10-23 08:00,4.99,29.7,13.36,2.47,4.33
2016-10-23 09:00,12.91,208.7,13.33,-6.19,-11.32
2016-10-23 10:00,14.96,158.0,13.33,5.59,-13.87
2016-10-23 11:00,23.17,160.2,13.30,7.87,-21.79
2016-10-23 12:00,20.24,157.3,13.30,7.80,-18.68
2016-10-23 13:00,26.40,155.2,13.33,11.06,-23.97
2016-10-23 14:00,18.77,148.2,13.33,9.89,-15.95
2016-10-23 15:00,15.84,138.0,13.30,10.60,-11.77
2016-10-23 16:00,9.39,135.9,13.30,6.53,-6.74
2016-10-23 17:00,7.33,7.6,13.30,0.96,7.27
2016-10-23 18:00,14.66,340.5,13.30,-4.89,13.83
2016-10-23 19:00,19.94,359.5,13.27,-0.18,19.94
2016-10-23 20:00,17.89,353.1,13.24,-2.14,17.76
2016-10-23 21:00,5.28,3.3,13.20,0.31,5.27
2016-10-23 22:00,7.33,150.3,13.20,3.63,-6.37
2016-10-23 23:00,16.13,190.4,13.20,-2.91,-15.87
2016-10-24 00:00,19.36,176.0,13.17,1.36,-19.31
2016-10-24 01:00,30.50,156.6,13.14,12.10,-28.00
2016-10-24 02:00,22.88,177.4,13.17,1.05,-22.85
2016-10-24 03:00,18.77,134.8,13.14,13.31,-13.24
2016-10-24 04:00,17.60,88.4,13.14,17.59,0.48
2016-10-24 05:00,6.75,76.5,13.11,6.56,1.58
2016-10-24 06:00,10.56,35.7,13.14,6.16,8.58
2016-10-24 07:00,22.00,24.1,13.11,8.98,20.08
2016-10-24 08:00,25.52,1.6,13.11,0.70,25.51
2016-10-24 09:00,12.03,18.5,13.02,3.81,11.41
2016-10-24 10:00,9.39,144.7,13.02,5.43,-7.66
2016-10-24 11:00,15.84,149.3,13.02,8.10,-13.61
2016-10-24 12:00,20.82,191.8,13.02,-4.26,-20.38
2016-10-24 13:00,23.17,199.5,13.02,-7.75,-21.84
2016-10-24 14:00,31.38,183.0,13.02,-1.65,-31.34
2016-10-24 15:00,26.10,162.6,13.08,7.80,-24.91
2016-10-24 16:00,15.84,114.4,13.11,14.42,-6.55
2016-10-24 17:00,24.34,146.4,13.14,13.46,-20.29
2016-10-24 18:00,15.54,175.3,13.11,1.28,-15.49
2016-10-24 19:00,3.81,26.5,13.11,1.70,3.41
2016-10-24 20:00,9.39,349.3,13.08,-1.75,9.22
2016-10-24 21:00,12.32,313.8,13.05,-8.89,8.53
2016-10-24 22:00,7.92,10.7,12.95,1.47,7.78
2016-10-24 23:00,12.91,290.2,12.98,-12.11,4.47
2016-10-25 00:00,9.68,197.8,12.95,-2.95,-9.22
2016-10-25 01:00,23.76,195.3,12.98,-6.27,-22.91
2016-10-25 02:00,24.93,200.6,12.98,-8.77,-23.34
2016-10-25 03:00,21.70,184.1,12.95,-1.54,-21.65
2016-10-25 04:00,15.84,165.8,12.95,3.89,-15.35
2016-10-25 05:00,11.44,152.8,12.89,5.23,-10.17
2016-10-25 06:00,2.64,318.0,12.92,-1.77,1.96
2016-10-25 07:00,13.79,346.1,12.89,-3.31,13.38
2016-10-25 08:00,20.53,12.1,12.89,4.31,20.07
2016-10-25 09:00,18.18,353.1,12.86,-2.17,18.05
2016-10-25 10:00,18.77,7.9,12.86,2.58,18.59
2016-10-25 11:00,13.20,329.6,12.83,-6.67,11.39
2016-10-25 12:00,7.04,39.6,12.79,4.48,5.43
2016-10-25 13:00,27.28,173.9,12.79,2.92,-27.12
2016-10-25 14:00,35.20,180.5,12.83,-0.33,-35.19
2016-10-25 15:00,29.04,190.4,12.83,-5.24,-28.56
2016-10-25 16:00,29.62,183.0,12.86,-1.55,-29.58
2016-10-25 17:00,19.06,177.4,12.89,0.87,-19.04
2016-10-25 18:00,15.54,173.9,12.89,1.66,-15.46
2016-10-25 19:00,11.73,195.7,12.86,-3.17,-11.30
2016-10-25 20:00,9.68,343.0,12.83,-2.83,9.26
2016-10-25 21:00,21.70,326.1,12.83,-12.10,18.02
2016-10-25 22:00,24.93,313.4,12.83,-18.10,17.14
2016-10-25 23:00,21.41,305.0,12.76,-17.54,12.28
2016-10-26 00:00,21.41,301.1,12.76,-18.33,11.07
2016-10-26 01:00,12.03,201.6,12.73,-4.43,-11.18
2016-10-26 02:00,18.77,194.3,12.67,-4.62,-18.19
2016-10-26 03:00,30.50,195.7,12.76,-8.24,-29.37
2016-10-26 04:00,31.09,185.5,12.76,-2.96,-30.95
2016-10-26 05:00,22.29,189.3,12.79,-3.62,-22.00
2016-10-26 06:00,13.49,202.0,12.76,-5.05,-12.51
2016-10-26 07:00,7.63,296.6,12.76,-6.82,3.41
2016-10-26 08:00,6.16,330.7,12.76,-3.02,5.37
2016-10-26 09:00,18.48,339.8,12.76,-6.37,17.34
2016-10-26 10:00,22.58,325.8,12.70,-12.71,18.67
2016-10-26 11:00,21.12,338.4,12.64,-7.77,19.64
2016-10-26 12:00,11.44,274.8,12.61,-11.40,0.95
2016-10-26 13:00,17.89,241.4,12.57,-15.70,-8.57
2016-10-26 14:00,22.88,217.5,12.54,-13.91,-18.16
2016-10-26 15:00,36.96,188.6,12.64,-5.55,-36.54
2016-10-26 16:00,39.89,196.4,12.67,-11.24,-38.27
2016-10-26 17:00,39.01,188.3,12.73,-5.62,-38.60
2016-10-26 18:00,32.85,195.7,12.76,-8.87,-31.63
2016-10-26 19:00,17.01,192.5,12.76,-3.68,-16.61
2016-10-26 20:00,17.60,234.0,12.73,-14.23,-10.35
2016-10-26 21:00,12.32,295.5,12.70,-11.12,5.31
2016-10-26 22:00,22.29,342.3,12.64,-6.78,21.23
2016-10-26 23:00,21.70,339.1,12.61,-7.74,20.28
2016-10-27 00:00,10.85,280.4,12.54,-10.67,1.96
2016-10-27 01:00,8.51,265.6,12.54,-8.48,-0.65
2016-10-27 02:00,11.44,154.9,12.51,4.86,-10.36
2016-10-27 03:00,42.53,188.6,12.57,-6.38,-42.05
2016-10-27 04:00,43.41,180.9,12.57,-0.68,-43.40
2016-10-27 05:00,41.06,184.4,12.61,-3.16,-40.94
2016-10-27 06:00,29.92,182.7,12.64,-1.39,-29.88
2016-10-27 07:00,11.15,184.8,12.61,-0.93,-11.11
2016-10-27 08:00,9.09,198.8,12.61,-2.93,-8.61
2016-10-27 09:00,7.33,328.9,12.61,-3.79,6.28
2016-10-27 10:00,23.46,313.4,12.57,-17.03,16.14
2016-10-27 11:00,23.46,312.0,12.54,-17.43,15.71
2016-10-27 12:00,22.29,325.4,12.39,-12.66,18.35
2016-10-27 13:00,12.03,308.9,12.39,-9.36,7.55
2016-10-27 14:00,6.16,252.6,12.32,-5.88,-1.84
2016-10-27 15:00,16.42,191.8,12.35,-3.36,-16.08
2016-10-27 16:00,39.89,190.4,12.54,-7.19,-39.23
2016-10-27 17:00,36.08,187.6,12.57,-4.76,-35.76
2016-10-27 18:00,37.54,200.6,12.61,-13.20,-35.15
2016-10-27 19:00,21.70,207.3,12.61,-9.94,-19.29
2016-10-27 20:00,13.49,247.0,12.57,-12.42,-5.27
2016-10-27 21:00,14.37,292.0,12.57,-13.33,5.38
2016-10-27 22:00,24.34,313.4,12.57,-17.67,16.74
2016-10-27 23:00,27.86,322.2,12.57,-17.06,22.03
2016-10-28 00:00,28.45,321.5,12.45,-17.70,22.28
2016-10-28 01:00,13.20,316.3,12.35,-9.12,9.54
2016-10-28 02:00,12.91,290.9,12.26,-12.05,4.61
2016-10-28 03:00,17.89,237.5,12.23,-15.09,-9.61
2016-10-28 04:00,38.42,187.9,12.51,-5.30,-38.06
2016-10-28 05:00,35.78,200.2,12.51,-12.38,-33.57
2016-10-28 06:00,35.49,201.6,12.51,-13.09,-32.99
2016-10-28 07:00,20.24,213.9,12.51,-11.30,-16.79